DK8PN Weather Reports


time (UTC)temp
F
wind
direction
speed
knots
gust
knots
rain 1hr
in
rain 24hr
in
rain mn
in
humidity
%
barometer
mb
20210723154613 82 360 0.0 2.6 0.00 0.00 0.00 41 1013.5
20210723153128 82 304 0.0 4.3 0.00 0.00 0.00 42 1013.6
20210723151646 83 300 0.0 2.6 0.00 0.00 0.00 43 1013.8
20210723150106 82 5 0.9 4.3 0.00 0.00 0.00 42 1013.9
20210723144549 82 24 0.9 5.2 0.00 0.00 0.00 45 1013.9
20210723143105 83 53 0.0 2.6 0.00 0.00 0.00 42 1014.0
20210723141606 82 321 0.0 3.5 0.00 0.00 0.00 43 1014.1
20210723140131 83 262 0.0 2.6 0.00 0.00 0.00 41 1014.1
20210723134528 82 24 0.0 3.5 0.00 0.00 0.00 45 1014.4
20210723133039 82 299 0.0 4.3 0.00 0.00 0.00 43 1014.5
20210723131539 82 244 1.7 4.3 0.00 0.00 0.00 42 1014.7
20210723130017 81 124 2.6 7.0 0.00 0.00 0.00 44 1014.8
20210723124522 81 92 0.0 3.5 0.00 0.00 0.00 44 1014.9
20210723123035 83 292 0.0 0.9 0.00 0.00 0.00 44 1015.0
20210723121508 81 312 2.6 5.2 0.00 0.00 0.00 46 1015.2
20210723120005 79 301 0.9 6.1 0.00 0.00 0.00 52 1015.4
20210723114505 78 11 0.0 3.5 0.00 0.00 0.00 53 1015.5
20210723113002 78 333 0.0 2.6 0.00 0.00 0.00 52 1015.8
20210723111646 79 96 0.0 2.6 0.00 0.00 0.00 51 1015.9
20210723110205 80 269 0.0 2.6 0.00 0.00 0.00 49 1016.1
20210723104717 78 169 0.0 3.5 0.00 0.00 0.00 53 1016.2
20210723103150 79 206 0.9 3.5 0.00 0.00 0.00 52 1016.4
20210723101624 79 285 0.0 2.6 0.00 0.00 0.00 55 1016.7
20210723100135 76 360 0.0 2.6 0.00 0.00 0.00 60 1016.9
20210723094759 76 317 0.0 3.5 0.00 0.00 0.00 61 1016.8
20210723093215 76 108 0.0 0.9 0.00 0.00 0.00 62 1017.0
20210723091641 76 109 0.0 1.7 0.00 0.00 0.00 62 1017.2
20210723090052 73 41 0.0 1.7 0.00 0.00 0.00 63 1017.2
20210723084626 72 350 0.0 0.9 0.00 0.00 0.00 67 1017.3
20210723083040 73 304 0.0 3.5 0.00 0.00 0.00 67 1017.5
20210723081522 72 289 0.0 0.9 0.00 0.00 0.00 71 1017.6
20210723080014 70 304 0.0 0.0 0.00 0.00 0.00 72 1017.7
20210723074513 69 334 0.0 0.9 0.00 0.00 0.00 77 1017.7
20210723073014 67 319 0.0 0.0 0.00 0.00 0.00 79 1017.7
20210723071519 66 319 0.0 0.0 0.00 0.00 0.00 78 1017.8
20210723070215 65 319 0.0 0.0 0.00 0.00 0.00 80 1017.9
20210723064619 64 319 0.0 0.0 0.00 0.00 0.00 82 1017.9
20210723063147 63 319 0.0 0.0 0.00 0.00 0.00 85 1017.9
20210723061709 62 319 0.0 0.0 0.00 0.00 0.00 87 1018.1
20210723060106 61 319 0.0 0.0 0.00 0.00 0.00 88 1018.2
20210723054640 60 319 0.0 0.0 0.00 0.00 0.00 90 1018.1
20210723053055 59 319 0.0 0.0 0.00 0.00 0.00 92 1018.1
20210723051544 57 319 0.0 0.0 0.00 0.00 0.00 92 1018.1
20210723050043 56 319 0.0 0.0 0.00 0.00 0.00 93 1018.0
20210723044555 56 317 0.0 0.0 0.00 0.00 0.00 93 1017.9
20210723043051 56 317 0.0 0.0 0.00 0.00 0.00 92 1017.8
20210723041544 56 317 0.0 0.0 0.00 0.00 0.00 92 1017.8
20210723040106 56 317 0.0 0.0 0.00 0.00 0.00 92 1017.7
20210723034554 56 317 0.0 0.0 0.00 0.00 0.00 92 1017.7
20210723033040 56 317 0.0 0.0 0.00 0.00 0.00 92 1017.8
20210723031525 56 317 0.0 0.0 0.00 0.00 0.00 92 1017.8
20210723030041 57 317 0.0 0.0 0.00 0.00 0.00 92 1017.9
20210723024544 57 317 0.0 0.0 0.00 0.00 0.00 92 1018.1
20210723023018 57 317 0.0 0.0 0.00 0.00 0.00 92 1018.1
20210723021513 57 317 0.0 0.0 0.00 0.00 0.00 92 1018.1
20210723020012 57 317 0.0 0.0 0.00 0.00 0.00 91 1018.2
20210723014513 57 317 0.0 0.0 0.00 0.00 0.00 91 1018.3
20210723013011 57 317 0.0 0.0 0.00 0.00 0.00 91 1018.3
20210723011508 58 317 0.0 0.0 0.00 0.00 0.00 90 1018.3
20210723010027 58 317 0.0 0.0 0.00 0.00 0.00 90 1018.4
20210723004509 58 317 0.0 0.0 0.00 0.00 0.00 90 1018.4
20210723003000 58 317 0.0 0.0 0.00 0.00 0.00 89 1018.5
20210723001653 59 317 0.0 0.0 0.00 0.00 0.00 89 1018.5
20210723000205 59 317 0.0 0.0 0.00 0.00 0.00 89 1018.5
20210722234652 59 317 0.0 0.0 0.00 0.00 0.00 89 1018.7
20210722233114 60 317 0.0 0.0 0.00 0.00 0.00 89 1018.7
20210722231631 60 317 0.0 0.0 0.00 0.00 0.00 88 1018.8
20210722230126 61 317 0.0 0.0 0.00 0.00 0.00 87 1018.8
20210722224558 62 317 0.0 0.0 0.00 0.00 0.00 87 1018.8
20210722223251 62 317 0.0 0.0 0.00 0.00 0.00 86 1018.7
20210722221612 62 317 0.0 0.0 0.00 0.00 0.00 85 1018.7
20210722220045 63 317 0.0 0.0 0.00 0.00 0.00 85 1018.6
20210722214553 64 317 0.0 0.0 0.00 0.00 0.00 84 1018.6
20210722213119 65 317 0.0 0.0 0.00 0.00 0.00 83 1018.6
20210722211708 65 317 0.0 0.0 0.00 0.00 0.00 82 1018.6
20210722210109 66 317 0.0 0.0 0.00 0.00 0.00 80 1018.7
20210722204613 66 317 0.0 0.0 0.00 0.00 0.00 79 1018.7
20210722203054 67 317 0.0 0.0 0.00 0.00 0.00 78 1018.7
20210722201615 67 317 0.0 0.0 0.00 0.00 0.00 78 1018.7
20210722200119 68 317 0.0 0.0 0.00 0.00 0.00 76 1018.6
20210722194616 70 317 0.0 0.0 0.00 0.00 0.00 73 1018.6
20210722193103 71 317 0.0 0.0 0.00 0.00 0.00 70 1018.4
20210722191629 73 317 0.0 0.0 0.00 0.00 0.00 66 1018.3
20210722190052 75 317 0.0 0.0 0.00 0.00 0.00 62 1018.2
20210722184542 75 317 0.0 0.0 0.00 0.00 0.00 60 1018.2
20210722183124 76 317 0.0 0.0 0.00 0.00 0.00 57 1018.2
20210722181554 76 317 0.0 0.0 0.00 0.00 0.00 55 1018.2
20210722180047 76 317 0.0 0.0 0.00 0.00 0.00 53 1018.2
20210722174540 77 315 0.0 3.5 0.00 0.00 0.00 52 1018.3
20210722173108 77 336 0.0 3.5 0.00 0.00 0.00 52 1018.3
20210722171551 78 355 0.9 4.3 0.00 0.00 0.00 50 1018.3
20210722170124 78 309 0.0 5.2 0.00 0.00 0.00 50 1018.3
20210722164553 78 330 0.9 3.5 0.00 0.00 0.00 49 1018.3
20210722163119 79 331 1.7 8.7 0.00 0.00 0.00 47 1018.4
20210722161544 79 323 0.9 7.8 0.00 0.00 0.00 47 1018.5
20210722160042 79 325 0.9 4.3 0.00 0.00 0.00 46 1018.6